When you browse on this site, cookies collect data to enhance your experience and personalize the content and advertising you see.
Visit our Privacy Policy to learn more. By continuing to use the site, you agree to this use of cookies and data.
  • Em Portugal
  • Lista de países
  • Para 7 dias
  • Temperatura da água
  • Mapas de satélite
  • Mapa do tempo
  • Widgets de tempo
  • user-avatar
    Iniciar Sessão

    Previsão horária em Slonowice

    Hoje, 22 Março, Sexta-feira

    Tempo Temperatura Precipitação Vento Pressão Humidade
    00:00 +7°C° 0 mm 2 m/s 754 mmHg 87%
    01:00 +5°C° 0 mm 3 m/s 754 mmHg 89%
    02:00 +7°C° 0 mm 3 m/s 754 mmHg 88%
    03:00 +7°C° 0 mm 3 m/s 753 mmHg 87%
    04:00 +7°C° 0 mm 3 m/s 753 mmHg 86%
    05:00 +7°C° 0 mm 3 m/s 753 mmHg 85%
    06:00 +8°C° 0 mm 3 m/s 753 mmHg 85%
    07:00 +8°C° 0 mm 3 m/s 754 mmHg 83%
    08:00 +9°C° 0 mm 3 m/s 754 mmHg 83%
    09:00 +9°C° 0 mm 3 m/s 754 mmHg 82%
    10:00 +10°C° 0 mm 3 m/s 754 mmHg 81%
    11:00 +10°C° 0 mm 3 m/s 754 mmHg 78%
    12:00 +11°C° 0 mm 3 m/s 754 mmHg 75%
    13:00 +12°C° 0 mm 3 m/s 754 mmHg 72%
    14:00 +12°C° 0 mm 3 m/s 753 mmHg 71%
    15:00 +13°C° 0 mm 2 m/s 753 mmHg 69%
    16:00 +13°C° 0 mm 2 m/s 753 mmHg 68%
    17:00 +13°C° 0 mm 2 m/s 753 mmHg 72%
    18:00 +12°C° 0 mm 2 m/s 753 mmHg 76%
    19:00 +11°C° 0 mm 1 m/s 753 mmHg 79%
    20:00 +9°C° 0 mm 2 m/s 753 mmHg 82%
    21:00 +8°C° 0 mm 2 m/s 753 mmHg 84%
    22:00 +8°C° 0 mm 2 m/s 753 mmHg 86%
    23:00 +7°C° 0 mm 2 m/s 753 mmHg 88%

    Amanhã, 23 Março, Sábado

    Tempo Temperatura Precipitação Vento Pressão Humidade
    00:00 +7°C° 0 mm 1 m/s 753 mmHg 89%
    01:00 +7°C° 0 mm 1 m/s 753 mmHg 90%
    02:00 +6°C° 0 mm 1 m/s 752 mmHg 90%
    03:00 +6°C° 0 mm 1 m/s 752 mmHg 91%
    04:00 +6°C° 0 mm 1 m/s 752 mmHg 91%
    05:00 +6°C° 0 mm 1 m/s 752 mmHg 90%
    06:00 +6°C° 0 mm 1 m/s 752 mmHg 88%
    07:00 +6°C° 0 mm 1 m/s 752 mmHg 87%
    08:00 +7°C° 0 mm 2 m/s 752 mmHg 78%
    09:00 +9°C° 0 mm 2 m/s 751 mmHg 70%
    10:00 +12°C° 0 mm 2 m/s 751 mmHg 61%
    11:00 +13°C° 0 mm 2 m/s 751 mmHg 55%
    12:00 +14°C° 0 mm 2 m/s 750 mmHg 50%
    13:00 +15°C° 0 mm 2 m/s 750 mmHg 44%
    14:00 +15°C° 0 mm 2 m/s 750 mmHg 43%
    15:00 +16°C° 0 mm 1 m/s 749 mmHg 42%
    16:00 +16°C° 0 mm 1 m/s 749 mmHg 41%
    17:00 +15°C° 0 mm 1 m/s 749 mmHg 45%
    18:00 +13°C° 0 mm 1 m/s 749 mmHg 49%
    19:00 +12°C° 0 mm 1 m/s 749 mmHg 53%
    20:00 +11°C° 0 mm 1 m/s 749 mmHg 55%
    21:00 +11°C° 0 mm 1 m/s 749 mmHg 58%
    22:00 +9°C° 0 mm 2 m/s 749 mmHg 60%
    23:00 +9°C° 0 mm 2 m/s 748 mmHg 65%

    Depois de amanhã, 24 Março, Domingo

    Tempo Temperatura Precipitação Vento Pressão Humidade
    00:00 +9°C° 0 mm 2 m/s 748 mmHg 70%
    01:00 +9°C° 0 mm 2 m/s 748 mmHg 76%
    02:00 +9°C° 0 mm 2 m/s 748 mmHg 78%
    03:00 +9°C° 0 mm 2 m/s 748 mmHg 81%
    04:00 +9°C° 0 mm 3 m/s 748 mmHg 83%
    05:00 +9°C° 0.1 mm 3 m/s 748 mmHg 85%
    06:00 +9°C° 0.1 mm 3 m/s 748 mmHg 86%
    07:00 +8°C° 0.1 mm 3 m/s 748 mmHg 88%
    08:00 +9°C° 0 mm 3 m/s 749 mmHg 79%
    09:00 +10°C° 0 mm 3 m/s 749 mmHg 69%
    10:00 +10°C° 0 mm 3 m/s 749 mmHg 60%
    11:00 +11°C° 0 mm 3 m/s 748 mmHg 55%
    12:00 +12°C° 0 mm 3 m/s 748 mmHg 51%
    13:00 +13°C° 0 mm 3 m/s 748 mmHg 46%
    14:00 +12°C° 0 mm 4 m/s 747 mmHg 45%
    15:00 +12°C° 0 mm 4 m/s 747 mmHg 43%
    16:00 +11°C° 0 mm 4 m/s 746 mmHg 42%
    17:00 +10°C° 0 mm 3 m/s 747 mmHg 43%
    18:00 +10°C° 0 mm 3 m/s 747 mmHg 44%
    19:00 +9°C° 0 mm 2 m/s 747 mmHg 45%
    20:00 +8°C° 0 mm 2 m/s 747 mmHg 49%
    21:00 +7°C° 0 mm 2 m/s 747 mmHg 53%
    22:00 +5°C° 0 mm 2 m/s 747 mmHg 57%
    23:00 +5°C° 0 mm 2 m/s 747 mmHg 59%

    25 Março, Segunda-feira

    Tempo Temperatura Precipitação Vento Pressão Humidade
    00:00 +4°C° 0 mm 2 m/s 747 mmHg 61%
    01:00 +4°C° 0 mm 2 m/s 747 mmHg 64%
    02:00 +4°C° 0 mm 2 m/s 746 mmHg 65%
    03:00 +3°C° 0 mm 2 m/s 746 mmHg 66%
    04:00 +3°C° 0 mm 2 m/s 746 mmHg 68%
    05:00 +3°C° 0 mm 3 m/s 745 mmHg 66%
    06:00 +3°C° 0 mm 3 m/s 745 mmHg 64%
    07:00 +4°C° 0 mm 4 m/s 745 mmHg 62%
    08:00 +5°C° 0 mm 4 m/s 745 mmHg 58%
    09:00 +6°C° 0 mm 5 m/s 744 mmHg 54%
    10:00 +7°C° 0 mm 6 m/s 744 mmHg 50%
    11:00 +6°C° 0 mm 7 m/s 743 mmHg 46%
    12:00 +8°C° 0 mm 7 m/s 743 mmHg 42%
    13:00 +9°C° 0 mm 7 m/s 742 mmHg 38%
    14:00 +7°C° 0.1 mm 8 m/s 741 mmHg 42%
    15:00 +7°C° 0.1 mm 8 m/s 741 mmHg 45%
    16:00 +7°C° 0.1 mm 8 m/s 740 mmHg 48%
    17:00 +5°C° 0.8 mm 8 m/s 740 mmHg 53%
    18:00 +4°C° 0.8 mm 7 m/s 740 mmHg 57%
    19:00 +3°C° 0.8 mm 7 m/s 741 mmHg 62%
    20:00 +2°C° 0.1 mm 6 m/s 741 mmHg 65%
    21:00 +2°C° 0.1 mm 6 m/s 741 mmHg 68%
    22:00 +1°C° 0.1 mm 6 m/s 742 mmHg 71%
    23:00 +1°C° 0.3 mm 6 m/s 742 mmHg 74%

    26 Março, Terça-feira

    Tempo Temperatura Precipitação Vento Pressão Humidade
    00:00 +1°C° 0.3 mm 6 m/s 743 mmHg 77%
    01:00 +1°C° 0.3 mm 6 m/s 743 mmHg 80%
    02:00 -1°C° 0.3 mm 7 m/s 744 mmHg 81%
    03:00 -1°C° 0.3 mm 7 m/s 744 mmHg 82%
    04:00 -1°C° 0.3 mm 7 m/s 745 mmHg 82%
    05:00 -1°C° 0 mm 7 m/s 746 mmHg 83%
    06:00 -1°C° 0 mm 6 m/s 747 mmHg 84%
    07:00 0°C° 0 mm 5 m/s 748 mmHg 84%
    08:00 -1°C° 0.1 mm 6 m/s 749 mmHg 83%
    09:00 +1°C° 0.1 mm 6 m/s 750 mmHg 81%
    10:00 +1°C° 0.1 mm 6 m/s 750 mmHg 79%
    11:00 +2°C° 0.1 mm 6 m/s 751 mmHg 77%
    12:00 +2°C° 0.1 mm 6 m/s 751 mmHg 75%
    13:00 +2°C° 0.1 mm 6 m/s 751 mmHg 73%
    14:00 +3°C° 0 mm 5 m/s 751 mmHg 68%
    15:00 +3°C° 0 mm 5 m/s 751 mmHg 64%
    16:00 +5°C° 0 mm 4 m/s 751 mmHg 59%
    17:00 +3°C° 0 mm 4 m/s 752 mmHg 63%
    18:00 +2°C° 0 mm 3 m/s 752 mmHg 66%
    19:00 +2°C° 0 mm 2 m/s 753 mmHg 70%
    20:00 +2°C° 0 mm 2 m/s 753 mmHg 72%
    21:00 +2°C° 0 mm 2 m/s 753 mmHg 75%
    22:00 +1°C° 0 mm 2 m/s 753 mmHg 77%
    23:00 +1°C° 0 mm 2 m/s 753 mmHg 78%

    27 Março, Quarta-feira

    Tempo Temperatura Precipitação Vento Pressão Humidade
    00:00 0°C° 0 mm 3 m/s 753 mmHg 78%
    01:00 0°C° 0 mm 3 m/s 753 mmHg 79%
    02:00 -1°C° 0 mm 3 m/s 753 mmHg 78%
    03:00 -1°C° 0 mm 3 m/s 752 mmHg 78%
    04:00 -1°C° 0 mm 3 m/s 752 mmHg 78%
    05:00 -1°C° 0 mm 4 m/s 752 mmHg 73%
    06:00 0°C° 0 mm 4 m/s 752 mmHg 68%
    07:00 +1°C° 0 mm 4 m/s 752 mmHg 64%
    08:00 +2°C° 0 mm 5 m/s 752 mmHg 59%
    09:00 +3°C° 0 mm 5 m/s 751 mmHg 54%
    10:00 +5°C° 0 mm 5 m/s 751 mmHg 49%
    11:00 +6°C° 0 mm 5 m/s 751 mmHg 50%
    12:00 +7°C° 0 mm 6 m/s 751 mmHg 50%
    13:00 +7°C° 0 mm 6 m/s 751 mmHg 51%
    14:00 +7°C° 0 mm 6 m/s 751 mmHg 56%
    15:00 +7°C° 0 mm 5 m/s 751 mmHg 61%
    16:00 +7°C° 0 mm 5 m/s 750 mmHg 67%
    17:00 +6°C° 0 mm 4 m/s 751 mmHg 72%
    18:00 +5°C° 0 mm 4 m/s 751 mmHg 77%
    19:00 +5°C° 0 mm 3 m/s 751 mmHg 82%
    20:00 +4°C° 0.1 mm 3 m/s 751 mmHg 84%
    21:00 +4°C° 0.1 mm 3 m/s 752 mmHg 86%
    22:00 +4°C° 0.1 mm 3 m/s 752 mmHg 88%
    23:00 +4°C° 0 mm 3 m/s 752 mmHg 88%
    Mostrar mais